Watsonville, CA

2:10 AM PDT on August 18, 2017 (GMT -0700)
Watsonville Municipal

Weather History for KWVI - July, 2013

Change the Weather History Date:

Tuesday, July 30, 2013

  Actual Average Record
Temperature  
Mean Temperature 63 °F 63 °F  
Max Temperature 69 °F 73 °F 76 °F (2014)
Min Temperature 56 °F 53 °F 48 °F (1948)
Degree Days  
Heating Degree Days 2    
Month to date heating degree days 90  
Since 1 June heating degree days 192  
Since 1 July heating degree days 90  
Cooling Degree Days 0    
Month to date cooling degree days 10  
Year to date cooling degree days 40  
Since 1 June cooling degree days 34  
Growing Degree Days 13 (Base 50)    
Moisture  
Dew Point 51 °F    
Average Humidity 67    
Maximum Humidity 80    
Minimum Humidity 53    
Precipitation  
Precipitation 0.00 in - 0.17 in (1966)
Month to date precipitation 0.02  
Year to date precipitation 2.41  
Since 1 July precipitation 0.02  
Sea Level Pressure  
Sea Level Pressure 30.10 in    
Wind  
Wind Speed 6 mph (SW)    
Max Wind Speed 15 mph    
Max Gust Speed 21 mph    
Visibility 10 miles    
Events      
T = Trace of Precipitation, MM = Missing Value Source: NWS Daily Summary

Daily Weather History Graph

Daily Weather History Graph

Search for Another Location

Airport or City:

Trip Planner

Search our weather history database for the weather conditions in past years. The results will help you decide how hot, cold, wet, or windy it might be!

Date:

Astronomy

Jul. 30, 2013 Rise Set
Actual Time 6:11 AM PDT 8:15 PM PDT
Civil Twilight 5:42 AM PDT 8:44 PM PDT
Nautical Twilight 5:07 AM PDT 9:19 PM PDT
Astronomical Twilight 4:29 AM PDT 9:57 PM PDT
Moon 12:31 AM PDT (7/30) 2:41 PM PDT (7/30)
Length of Visible Light 15h 01m
Length of Day
14h 04m
Last Quarter, 40% of the Moon is Illuminated
Jul 30
Last Quarter
Aug 6
New
Aug 14
First Quarter
Aug 20
Full
Aug 28
Last Quarter

Hourly Weather History & Observations

Time (PDT) Temp. Dew Point Humidity Pressure Visibility Wind Dir Wind Speed Gust Speed Precip Events Conditions
12:53 AM 57.9 °F 51.1 °F 78% 30.06 in 10.0 mi SW 3.5 mph - N/A   Overcast
1:45 AM 57.2 °F 51.8 °F 82% 30.07 in 10.0 mi Calm Calm - N/A   Overcast
1:53 AM 57.9 °F 51.1 °F 78% 30.07 in 10.0 mi SW 3.5 mph - N/A   Overcast
2:53 AM 57.9 °F 51.1 °F 78% 30.06 in 10.0 mi Calm Calm - N/A   Overcast
3:53 AM 57.9 °F 51.1 °F 78% 30.06 in 10.0 mi SW 4.6 mph - N/A   Overcast
4:26 AM 57.2 °F 51.8 °F 82% 30.06 in 10.0 mi Calm Calm - N/A   Overcast
4:53 AM 57.9 °F 51.1 °F 78% 30.06 in 10.0 mi Calm Calm - N/A   Overcast
5:53 AM 57.0 °F 50.0 °F 77% 30.07 in 10.0 mi Calm Calm - N/A   Overcast
6:53 AM 57.0 °F 50.0 °F 77% 30.09 in 10.0 mi Calm Calm - N/A   Overcast
7:53 AM 57.9 °F 51.1 °F 78% 30.10 in 10.0 mi Calm Calm - N/A   Overcast
8:53 AM 59.0 °F 51.1 °F 75% 30.12 in 10.0 mi WSW 4.6 mph - N/A   Overcast
9:53 AM 61.0 °F 51.1 °F 70% 30.13 in 10.0 mi Variable 5.8 mph - N/A   Overcast
10:10 AM 62.6 °F 51.8 °F 68% 30.13 in 10.0 mi Variable 5.8 mph - N/A   Overcast
10:42 AM 64.4 °F 51.8 °F 64% 30.13 in 10.0 mi SSW 8.1 mph - N/A   Scattered Clouds
10:53 AM 64.0 °F 52.0 °F 65% 30.13 in 10.0 mi South 8.1 mph - N/A   Clear
11:53 AM 66.9 °F 52.0 °F 59% 30.13 in 10.0 mi South 10.4 mph - N/A   Clear
12:53 PM 69.1 °F 52.0 °F 54% 30.12 in 10.0 mi SW 10.4 mph 19.6 mph N/A   Clear
1:53 PM 66.9 °F 52.0 °F 59% 30.13 in 10.0 mi WSW 11.5 mph - N/A   Clear
2:53 PM 66.9 °F 52.0 °F 59% 30.12 in 10.0 mi SW 10.4 mph - N/A   Clear
3:53 PM 64.9 °F 52.0 °F 63% 30.11 in 10.0 mi SW 11.5 mph - N/A   Clear
4:53 PM 63.0 °F 52.0 °F 67% 30.11 in 10.0 mi West 11.5 mph - N/A   Clear
5:53 PM 63.0 °F 52.0 °F 67% 30.10 in 10.0 mi WSW 10.4 mph - N/A   Clear
6:53 PM 60.1 °F 51.1 °F 72% 30.09 in 9.0 mi WSW 9.2 mph - N/A   Clear
7:53 PM 57.9 °F 51.1 °F 78% 30.10 in 8.0 mi SW 6.9 mph - N/A   Mostly Cloudy
8:53 PM 57.0 °F 51.1 °F 81% 30.10 in 10.0 mi WSW 4.6 mph - N/A   Overcast
9:53 PM 57.0 °F 52.0 °F 83% 30.12 in 10.0 mi West 4.6 mph - N/A   Overcast
10:53 PM 57.0 °F 52.0 °F 83% 30.12 in 10.0 mi Calm Calm - N/A   Overcast